Weather in Ufimsky

Russia / Republic of Bashkortostan     52°12′38″N   58°17′24″E
temp.,
°C
wind,
m/s
gust,
m/s
humid.,
%
clouds,
%
prec.,
mm/h
press.,
hPa
HPBL,
m
5 august, thu
thu523:00+22ene224960 0.0 101412
02:00+20sw115872 0.0 101311
05:00+20sse115768 0.0 101211
08:00+24s354472 0.0 1012178
11:00+31wsw352694 0.0 1011865
14:00+35sw581789 0.0 10093999
17:00+35s791790 0.0 10073874
20:00+25n8114798 0.1 1010488
6 august, fri
fri623:00+20n476786 0.3 1010159
02:00+17nne2381100 1.0 101067
05:00+17n3481100 1.8 100986
08:00+19nne3673100 0.1 1011325
11:00+20ne5773100 0.1 1011665
14:00+24ne555097 0.3 10121345
17:00+24ene4445100 0.3 10111014
20:00+22ese12530 0.0 101213
7 august, sat
sat723:00+18nne612560 0.0 1014357
02:00+16nne366111 0.0 1015126
05:00+14n34645 0.0 101651
08:00+18nne23517 0.0 1017236
11:00+22nne12365 0.0 10171268
14:00+26nne232470 0.0 10151932
17:00+27nnw441876 0.0 10152162
20:00+23n35302 0.0 101682
8 august, sun
sun823:00+18n33435 0.0 101850
02:00+16nnw22525 0.0 101925
05:00+16n225676 0.0 102022
08:00+19n124811 0.0 1020195
11:00+25n473891 0.0 10201286
14:00+28n573139 0.0 10192150
17:00+29n562995 0.0 10182286
20:00+25n354043 0.0 101983
9 august, mon
mon923:00+21n334997 0.0 102027
02:00+19n2253100 0.0 102011
05:00+18sw115891 0.0 102011
08:00+22sw124989 0.0 1020157
11:00+28sw343313 0.0 10181038
14:00+32wnw4523100 0.0 10173304
17:00+30n342779 0.0 1016534
20:00+25se3441100 0.0 101774